Regional Weather Roundup
Issued by NWS Sterling, VA

Home | Current Version | Previous Version | Graphics & Text | Print | Product List | Glossary On
Versions: 1 2 3 4 5 6 7 8 9 10 11 12 13 14 15 16 17 18 19 20 21 22 23 24 25 26 27 28 29 30 31 32 33 34 35 36 37 38 39 40 41 42 43 44 45 46 47 48 49 50
000
ASUS41 KLWX 291210
RWRLWX

REGIONAL WEATHER ROUNDUP
NATIONAL WEATHER SERVICE BALTIMORE MD/WASHINGTON DC
800 AM EDT TUE JUL 29 2014

Note: "FAIR" indicates few or no clouds below 12,000 feet
with no significant weather and/or obstructions to visibility.
 TC=TEMPERATURE CELSIUS

 * =Non NWS site. Station does not report precipitation (e.g. rain,
    snow, etc.), thunder, or fog.

DCZ001-MDZ009-015-VAZ040>042-051-053>054-291300-
WASHINGTON METRO
  /KDAA//-FT BELVOIR

CITY           SKY/WX    TMP DP  RH WIND       PRES   REMARKS
WASHINGTON NAT MOSUNNY   67  51  56 NW15      29.94R
DULLES         MOSUNNY   61  51  70 W8        29.95R
ANDREWS AFB    PTSUNNY   65  54  66 NW12      29.93R
QUANTICO       SUNNY     64  53  67 NW8       29.96R
COLLEGE PARK*  CLOUDY    64  54  68 NW6       29.93R
LEESBURG*      SUNNY     61  54  77 W9        29.95S
MANASSAS*      SUNNY     63  55  77 CALM      29.95S
GAITHERSBURG*  MOSUNNY   61  50  67 NW12      29.98R

$$

MDZ006>007-011-014-291300-
BALTIMORE METRO

CITY           SKY/WX    TMP DP  RH WIND       PRES   REMARKS
BWI AIRPORT    CLOUDY    63  55  75 W7        29.92R
MD SCIENCE CTR   N/A     66  55  67 MISG      29.92R
MARTIN STATE   MOSUNNY   66  61  82 W6        29.93R
ANNAPOLIS      CLOUDY    65  57  75 W6        29.92R
FORT MEADE*    CLOUDY    61  55  82 W3        29.95R

$$

MDZ012-015-019>023-291300-
MARYLAND EASTERN SHORE

CITY           SKY/WX    TMP DP  RH WIND       PRES   REMARKS
OCEAN CITY     SUNNY     68  60  75 NW6       29.90R
SALISBURY      SUNNY    N/A N/A N/A MISG        N/A
BAY BRIDGE AP*   N/A     66  57  72 NW13      29.92R
CAMBRIDGE*     MOSUNNY   72  59  64 N5        29.91R
EASTON*        MOSUNNY   70  59  68 CALM      29.95R

$$

MDZ017>025-291300-
SOUTHERN MARYLAND

CITY           SKY/WX    TMP DP  RH WIND       PRES   REMARKS
PATUXENT RIVER MOSUNNY   67  58  72 NW8       29.92R
ST INIGOES     MOSUNNY   67  56  67 VRB6      29.92R
LEONARDTOWN*   MOSUNNY   63  55  77 W3        29.94R

$$

MDZ003>005-291300-
NORTH CENTRAL MARYLAND

CITY           SKY/WX    TMP DP  RH WIND       PRES   REMARKS
FREDERICK*     SUNNY     61  55  82 CALM      29.96R
HAGERSTOWN APT SUNNY     58  49  72 W6        29.95R
WESTMINSTER*   SUNNY     61  55  82 W7        29.93R

$$

MDZ501>502-291300-
WESTERN MARYLAND

CITY           SKY/WX    TMP DP  RH WIND       PRES   REMARKS
OAKLAND*       SUNNY     46 N/A N/A W3        30.00R
CUMBERLAND*    SUNNY     59  52  77 CALM      30.02R

$$

VAZ025>031-291300-
SHENANDOAH VALLEY

CITY           SKY/WX    TMP DP  RH WIND       PRES   REMARKS
WINCHESTER*    SUNNY     59  50  72 NW9       29.97R
STAUNTON*      MOSUNNY   56  52  88 CALM      30.02R

$$

WVZ021-048>050-054>055-291300-
EASTERN WEST VIRGINIA PANHANDLE

CITY           SKY/WX    TMP DP  RH WIND       PRES   REMARKS
MARTINSBURG    SUNNY     60  47  61 W6        29.96R
PETERSBURG*    PTSUNNY   55  50  85 CALM      30.00S

$$

VAZ036>039-050-291300-
CENTRAL FOOTHILLS

CITY           SKY/WX    TMP DP  RH WIND       PRES   REMARKS
CHARLOTTESVILL SUNNY     61  53  75 NW5       29.98R
ORANGE*        SUNNY     61  52  72 NW3       29.97F

$$

VAZ055>057-291300-
NORTH AND CENTRAL PIEDMONT

CITY           SKY/WX    TMP DP  RH WIND       PRES   REMARKS
FREDERICKSBRG* SUNNY     65  54  66 NW10      29.95R
STAFFORD*      SUNNY     62  56  81 NW8       30.00R

$$

NCZ024-NYZ072-PAZ021-071-VAZ022-071-291300-
OTHER REGIONAL OBSERVATIONS

CITY           SKY/WX    TMP DP  RH WIND       PRES   REMARKS
NEW YORK CITY  SUNNY     64  53  67 VRB3      29.87R
PHILADELPHIA   MOSUNNY   66  55  67 NW8       29.89R
PITTSBURGH     CLOUDY    54  50  86 W3        29.98R
ROANOKE        PTSUNNY   63  56  78 CALM      30.01R
RICHMOND       PTSUNNY   67  54  63 N10       29.95R
RALEIGH        PTSUNNY   68  57  68 NE3       29.96R

$$

ANZ530>537-291300-
MARINE OBSERVATIONS

STATION/POSITION TIME  TEMP    WIND        PRES
                       AIR SEA DIR/SP/G
                 (UTC) (F)     (DEG/KT/KT) (MB)
THOMAS PT LIGHT  1200   65 78  320/ 12/ 14 1013.5R
BALT KEY BRIDGE  1200   65     270/ 10/ 11 1012.6R
COVE POINT       1200   66     330/ 12/ 15 1012.8S
LEWISETTA        1200   68 77  320/ 10/ 12 1013.0R
SOLOMONS ISLAND  1200      79                N/A
PINEY POINT      1200          340/ 14/ 17   N/A

$$



USA.gov is the U.S. government's official web portal to all federal, state and local government web resources and services.